Preview of NWS' New Version of Forecast
This preview is not operational and should not be used for support decisions.

Regional Weather Roundup (RWR)

Issued by National Weather Service (NWS)

                            
000
ASUS45 KCYS 211510
RWRWY 

WYOMING REGIONAL WEATHER ROUNDUP
NATIONAL WEATHER SERVICE CHEYENNE WY
800 AM MST THU FEB 21 2019

NOTE:  "FAIR" INDICATES FEW OR NO CLOUDS BELOW 12,000 FEET
WITH NO SIGNIFICANT WEATHER AND/OR OBSTRUCTIONS TO VISIBILITY.

WYZ001-211600-
...YELLOWSTONE NATIONAL PARK...
  
CITY           SKY/WX    TMP DP  RH WIND       PRES   REMARKS
LK YELLOWSTONE   N/A     -7 -12  79 CALM      29.69R                  
W YELLOWSTONE  NOT AVBL                                               

$$
WYZ002>013-054>058-071-098>099-211600-
...NORTHERN WYOMING...
  
CITY           SKY/WX    TMP DP  RH WIND       PRES   REMARKS
JACKSON        CLEAR     -8 -12  83 N5        29.73R WCI -19          
CODY           FLURRIES  11   9  92 NW5       29.89R WCI   3          
GREYBULL       CLEAR      8   6  92 S3        29.92R                  
WORLAND        CLOUDY    13  10  88 SE5       29.91R WCI   5          
SHERIDAN       CLOUDY    12   9  87 NW3       29.96R FOG              
BUFFALO        LGT SNOW  13   8  81 CALM      29.89R                  
GILLETTE       CLOUDY     8   5  87 CALM      29.93R                  
HULETT         FLURRIES   9   3  78 MISG      29.95R                  
NEWCASTLE        N/A      5   0  78 N3        29.94R                  

$$
WYZ014>020-022>026-101>103-211600-
...CENTRAL WYOMING...
  
CITY           SKY/WX    TMP DP  RH WIND       PRES   REMARKS
BIG PINEY      PTCLDY    -8 -13  78 CALM      29.68R                  
PINEDALE       PTCLDY   -15 -20  76 NW6       29.69R WCI -29          
DUBOIS         FLURRIES  -4  -9  77 NW7       29.70R WCI -18          
LANDER         LGT SNOW  12   8  84 NW6       29.81R VSB 3/4 WCI   3  
RIVERTON       LGT SNOW  12   6  77 N5        29.83R WCI   4          
CASPER         CLOUDY     8   4  83 N3        29.82R                  
DOUGLAS        CLOUDY    10   6  84 CALM      29.86R                  

$$
WYZ021-027>030-104>119-211600-
...SOUTHERN WYOMING...
  
CITY           SKY/WX    TMP DP  RH WIND       PRES   REMARKS
EVANSTON       CLOUDY     3  -3  76 E14       29.60R WCI -15          
KEMMERER       NOT AVBL                                               
FORT BRIDGER   LGT SNOW   1  -1  89 CALM      29.66S                  
ROCK SPRINGS   SNOW       7   3  84 NE15      29.66R VSB 1/2 WCI -10  
DIXON          FAIR      12   3  68 E13       29.67R WCI  -3          
RAWLINS        CLOUDY    10   4  76 NE8       29.68R WCI  -2          
SARATOGA       CLOUDY     9   1  72 CALM      29.67R                  
LARAMIE        PTSUNNY    7   1  76 S12       29.67R WCI  -8          
CHEYENNE       PTSUNNY   14   5  67 NE3       29.76R                  
TORRINGTON     CLOUDY    13   7  77 CALM      29.89R                  
PINE BLUFFS    CLOUDY    14   5  67 NE7       29.82R WCI   4          

$$